Location: Bretagne
(43.8474°N, 0.4650°W)
Time: 05:41:54
(UTC+00:00)

Cosmos 1603 - Pass Details

Date: 15 January 2026
Orbit: 831 x 857 km, 71.0° (Epoch: 10 February)

Event Time Altitude Azimuth Distance (km) Brightness Sun altitude
Rises 18:01:32 0° 204° (SSW) 3,389 7.5 -12.7°
Reaches altitude 10° 18:03:59 10° 205° (SSW) 2,454 6.7 -13.1°
Maximum altitude 18:09:38 86° 295° (WNW) 846 3.7 -14.1°
Drops below altitude 10° 18:15:16 10° 24° (NNE) 2,455 5.7 -15.1°
Enters shadow 18:15:46 - 25° (NNE) 2,643 5.9 -15.2°
